Regional Weather Roundup
Issued by NWS

Home | Current Version | Previous Version | Graphics & Text | Print | Product List | Glossary On
Versions: 1 2 3 4 5 6 7 8 9 10 11 12 13 14 15 16 17 18 19 20 21 22 23 24 25 26 27 28 29 30 31 32 33 34 35 36 37 38 39 40 41 42 43 44 45 46 47 48 49 50
000
ASUS45 KSLC 292010
RWRUT

UTAH REGIONAL WEATHER ROUNDUP
NATIONAL WEATHER SERVICE SALT LAKE CITY UT
100 PM MST THU JAN 29 2015

UTZ001>011-023>025-292100-

NORTHERN UTAH

CITY           SKY/WX    TMP DP  RH WIND       PRES   REMARKS
BRIGHAM CITY   MOSUNNY   45  35  69 N6        30.34F
HILL AFB       PTSUNNY   45  29  54 NW5       30.31F
LOGAN          CLOUDY    36  34  92 NW5       30.36F WCI  32
OGDEN          PTSUNNY   45  36  70 W5        30.32F
PROVO AIRPORT  MOSUNNY   39  34  81 VRB5      30.32F
SALT LAKE CITY PTSUNNY   42  35  76 NW7       30.32F
VERNAL         PTSUNNY   45  30  55 SW9       30.37F
WENDOVER       CLOUDY    46  32  57 NE9       30.32F
HEBER CITY     PTSUNNY   39  30  70 CALM      30.34F
WEST JORDAN    SUNNY     46  36  66 CALM      30.32F

$$

UTZ012>022-026-027-292100-

SOUTHERN/CENTRAL UTAH

CITY           SKY/WX    TMP DP  RH WIND       PRES   REMARKS
BLANDING       CLOUDY    47  30  53 CALM      30.40F
BRYCE CANYON   CLOUDY    41  26  55 SE9       30.31F
CEDAR CITY     CLOUDY    43  33  68 CALM      30.26F
DELTA          PTSUNNY   45  35  67 CALM      30.29F
HANKSVILLE     PTSUNNY   50  32  50 CALM      30.33F
MILFORD        CLOUDY    45  34  65 N12       30.28F
MOAB/CYNLANDS  SUNNY     50  32  50 N5        30.30F
PRICE          PTSUNNY   50  25  37 CALM      30.31F
ST GEORGE      MOCLDY    57  36  44 N5        30.21F
KANAB            N/A     52  32  46 NE16G22   30.28F

$$

REGIONAL REPORTS     COLORADO/ARIZONA

CITY           SKY/WX    TMP DP  RH WIND       PRES   REMARKS
CRAIG, CO      MOSUNNY   39  30  70 SW3       30.36F
GRAND JUNCTION PTSUNNY   51  28  41 SE10      30.30F
RIFLE          MOSUNNY   48  27  44 SE3       30.31F
MONTROSE       CLOUDY    47  29  49 CALM      30.34F
CORTEZ         PTSUNNY   53  29  39 VRB6      30.32F
PAGE, AZ       NOT AVBL
GRAND CANYON   CLOUDY    50  32  50 E15       30.25F
KINGMAN        CLOUDY    59  40  49 N7        30.14F
FLAGSTAFF      CLOUDY    47  30  51 E8        30.25F

$$

REGIONAL REPORTS    NEVADA/IDAHO/WYOMING

CITY           SKY/WX    TMP DP  RH WIND       PRES   REMARKS
LAS VEGAS, NV  CLOUDY    62  38  40 W7        30.12F
ELY            CLOUDY    40  30  67 CALM      30.29F
ELKO           CLOUDY    45  33  63 CALM      30.27F
POCATELLO, ID  MOSUNNY   40  35  83 SE3       30.38F
BURLEY         PTSUNNY   42  32  67 E14       30.36F
EVANSTON, WY   PTSUNNY   34  28  79 N5        30.36F WCI  30
ROCK SPRINGS   CLOUDY    36  30  79 NE7       30.37F WCI  30
KEMMERER       CLOUDY    32  28  86 E7        30.38F WCI  26

$$



USA.gov is the U.S. government's official web portal to all federal, state and local government web resources and services.